Location: Brno
(49.2000°N, 16.6330°E)
Time: 01:41:44
(UTC+02:00)

Iridium 2 - Visible Passes

Search period start: 04 July 2015 00:00
Search period end: 14 July 2015 00:00
Orbit: 521 x 534 km, 85.5° (Epoch: 03 July)

Date Brightness Start Highest point End Pass type
(mag) Time Alt. Az. Time Alt. Az. Time Alt. Az.
04 Jul 6.0 01:08:05 10° NW 01:10:23 15° W 01:11:57 12° WSW visible
04 Jul 4.3 23:20:07 10° N 23:23:51 43° E 23:25:32 27° SE visible
05 Jul 5.9 00:56:37 10° NW 00:59:11 17° W 01:00:47 13° WSW visible
05 Jul 4.5 23:08:56 10° N 23:12:34 38° ENE 23:14:22 24° SE visible
06 Jul 5.8 00:45:12 10° NW 00:47:58 19° W 00:49:38 15° WSW visible
06 Jul 4.7 22:57:45 10° NNE 23:01:18 34° ENE 23:03:13 21° SE visible
07 Jul 5.7 00:33:47 10° NNW 00:36:47 21° W 00:38:28 16° WSW visible
07 Jul 4.9 22:46:34 10° NNE 22:50:01 30° ENE 22:52:03 19° SE visible
08 Jul 5.5 00:22:25 10° NNW 00:25:33 23° W 00:27:19 17° WSW visible
08 Jul 5.0 22:35:24 10° NNE 22:38:43 27° ENE 22:40:54 17° ESE visible
09 Jul 5.4 00:11:03 10° NNW 00:14:20 26° W 00:16:09 18° SW visible
09 Jul 5.2 22:24:14 10° NNE 22:27:24 24° ENE 22:29:45 15° ESE visible
09 Jul 5.2 23:59:41 10° NNW 00:03:06 29° W 00:05:00 19° SW visible
10 Jul 5.3 22:13:05 10° NNE 22:16:05 22° ENE 22:18:36 13° ESE visible
10 Jul 5.0 23:48:20 10° NNW 23:51:51 33° W 23:53:51 20° SW visible
11 Jul 5.5 22:01:57 10° NNE 22:04:45 19° ENE 22:07:27 11° ESE visible
11 Jul 4.8 23:36:59 10° NNW 23:40:36 37° W 23:42:43 20° SW visible
12 Jul 5.6 21:50:50 10° NNE 21:53:25 17° ENE 21:56:05 10° ESE visible
12 Jul 4.6 23:25:39 10° NNW 23:29:20 43° W 23:31:34 20° SSW visible
13 Jul 5.7 21:39:45 10° NNE 21:42:04 16° ENE 21:44:31 10° ESE visible
13 Jul 4.4 23:14:19 10° NNW 23:18:04 49° W 23:20:26 20° SSW visible
